Location: Alphen
(52.1351°N, 4.6549°E)
Time: 00:55:33
(UTC+00:00)

Cosmos 2369 Rocket - Pass Details

Date: 27 January 2021
Orbit: 830 x 851 km, 71.0° (Epoch: 27 February)

Event Time Altitude Azimuth Distance (km) Brightness Sun altitude
Exits shadow 03:18:36 17° 18° (NNE) 1,977 4.4 -38.0°
Maximum altitude 03:19:20 18° 28° (NNE) 1,954 4.5 -37.8°
Drops below altitude 10° 03:23:04 10° 71° (ENE) 2,446 5.3 -37.3°
Sets 03:26:20 0° 90° (E) 3,375 6.2 -36.8°
